| time (UTC) | temp F | wind direction | speed knots | gust knots | rain 1hr in | rain 24hr in | rain mn in | humidity % | barometer mb |
| 20260831134932 | 83 | 48 | 0.0 | 1.7 | 0.00 | 0.00 | 0.00 | 80 | 1016.9 |
| 20260831134429 | 82 | 296 | 4.3 | 4.3 | 0.00 | 0.00 | 0.00 | 80 | 1016.9 |
| 20260831133928 | 82 | 283 | 0.9 | 3.5 | 0.00 | 0.00 | 0.00 | 81 | 1016.9 |
| 20260831133428 | 82 | 331 | 1.7 | 3.5 | 0.00 | 0.00 | 0.00 | 81 | 1016.6 |
| 20260831132923 | 82 | 300 | 1.7 | 2.6 | 0.00 | 0.00 | 0.00 | 82 | 1016.5 |
| 20260831132419 | 81 | 256 | 1.7 | 2.6 | 0.00 | 0.00 | 0.00 | 85 | 1016.7 |
| 20260831131918 | 81 | 42 | 1.7 | 2.6 | 0.00 | 0.00 | 0.00 | 84 | 1016.8 |
| 20260831131414 | 81 | 29 | 1.7 | 1.7 | 0.00 | 0.00 | 0.00 | 85 | 1016.9 |
| 20260831130909 | 81 | 107 | 0.9 | 1.7 | 0.00 | 0.00 | 0.00 | 86 | 1017.0 |
| 20260831130405 | 80 | 275 | 0.0 | 1.7 | 0.00 | 0.00 | 0.00 | 85 | 1016.9 |
| 20260831125904 | 80 | 134 | 0.9 | 2.6 | 0.00 | 0.00 | 0.00 | 86 | 1016.8 |
| 20260831125359 | 80 | 100 | 0.9 | 1.7 | 0.00 | 0.00 | 0.00 | 87 | 1016.5 |
| 20260831124854 | 80 | 28 | 1.7 | 1.7 | 0.00 | 0.00 | 0.00 | 87 | 1016.4 |
| 20260831124350 | 80 | 238 | 0.0 | 0.9 | 0.00 | 0.00 | 0.00 | 88 | 1016.7 |
| 20260831123845 | 80 | 222 | 0.0 | 2.6 | 0.00 | 0.00 | 0.00 | 88 | 1016.8 |
| 20260831123344 | 79 | 290 | 0.0 | 2.6 | 0.00 | 0.00 | 0.00 | 88 | 1016.6 |
| 20260831122839 | 79 | 323 | 0.0 | 0.9 | 0.00 | 0.00 | 0.00 | 88 | 1016.7 |
| 20260831122334 | 79 | 236 | 0.0 | 0.9 | 0.00 | 0.00 | 0.00 | 89 | 1016.5 |
| 20260831121834 | 79 | 43 | 0.0 | 0.9 | 0.00 | 0.00 | 0.00 | 89 | 1016.4 |
| 20260831121330 | 79 | 139 | 0.0 | 1.7 | 0.00 | 0.00 | 0.00 | 90 | 1016.2 |
| 20260831120826 | 79 | 196 | 0.0 | 0.9 | 0.00 | 0.00 | 0.00 | 90 | 1016.3 |
| 20260831120320 | 79 | 24 | 1.7 | 2.6 | 0.00 | 0.00 | 0.00 | 90 | 1016.3 |
| 20260831115815 | 78 | 27 | 0.9 | 1.7 | 0.00 | 0.00 | 0.00 | 93 | 1016.3 |
| 20260831115312 | 78 | 98 | 0.0 | 0.0 | 0.00 | 0.00 | 0.00 | 95 | 1016.3 |
| 20260831114811 | 78 | 308 | 0.0 | 0.0 | 0.00 | 0.00 | 0.00 | 95 | 1016.1 |
| 20260831114310 | 78 | 236 | 0.0 | 0.0 | 0.00 | 0.00 | 0.00 | 96 | 1016.1 |
| 20260831113806 | 78 | 238 | 0.0 | 0.9 | 0.00 | 0.00 | 0.00 | 96 | 1016.0 |
| 20260831113305 | 78 | 155 | 0.0 | 0.9 | 0.00 | 0.00 | 0.00 | 96 | 1015.9 |
| 20260831112800 | 78 | 10 | 0.0 | 0.0 | 0.00 | 0.00 | 0.00 | 96 | 1015.9 |
| 20260831112255 | 78 | 70 | 0.0 | 0.0 | 0.00 | 0.00 | 0.00 | 96 | 1015.9 |
| 20260831111750 | 78 | 140 | 0.0 | 0.0 | 0.00 | 0.00 | 0.00 | 96 | 1015.9 |
| 20260831111247 | 78 | 110 | 0.0 | 0.0 | 0.00 | 0.00 | 0.00 | 97 | 1016.0 |
| 20260831110742 | 78 | 0 | 0.0 | 0.0 | 0.00 | 0.00 | 0.00 | 97 | 1015.8 |
| 20260831110237 | 78 | 91 | 0.0 | 0.0 | 0.00 | 0.00 | 0.00 | 97 | 1015.8 |
| 20260831105735 | 78 | 110 | 0.0 | 0.0 | 0.00 | 0.00 | 0.00 | 97 | 1015.8 |
| 20260831105232 | 78 | 123 | 0.0 | 0.0 | 0.00 | 0.00 | 0.00 | 97 | 1015.7 |
| 20260831104726 | 78 | 84 | 0.0 | 0.0 | 0.00 | 0.00 | 0.00 | 97 | 1015.8 |
| 20260831104223 | 78 | 104 | 0.0 | 0.9 | 0.00 | 0.00 | 0.00 | 97 | 1015.5 |
| 20260831103722 | 78 | 70 | 0.0 | 0.9 | 0.00 | 0.00 | 0.00 | 97 | 1015.6 |
| 20260831103218 | 78 | 9 | 0.0 | 1.7 | 0.00 | 0.00 | 0.00 | 97 | 1015.8 |
| 20260831102718 | 78 | 98 | 0.0 | 0.0 | 0.00 | 0.00 | 0.00 | 97 | 1015.5 |
| 20260831102213 | 78 | 146 | 0.0 | 1.7 | 0.00 | 0.00 | 0.00 | 97 | 1015.5 |
| 20260831101709 | 78 | 34 | 0.0 | 0.9 | 0.00 | 0.00 | 0.00 | 97 | 1015.3 |
| 20260831101204 | 78 | 237 | 0.0 | 0.0 | 0.00 | 0.00 | 0.00 | 97 | 1015.2 |
| 20260831100700 | 78 | 164 | 0.9 | 1.7 | 0.00 | 0.00 | 0.00 | 97 | 1015.4 |
| 20260831100156 | 78 | 10 | 0.0 | 0.9 | 0.00 | 0.00 | 0.00 | 97 | 1015.3 |
| 20260831095654 | 78 | 81 | 0.0 | 0.9 | 0.00 | 0.00 | 0.00 | 97 | 1015.4 |
| 20260831095149 | 78 | 327 | 0.0 | 0.0 | 0.00 | 0.00 | 0.00 | 97 | 1015.3 |
| 20260831094644 | 78 | 100 | 0.0 | 0.0 | 0.00 | 0.00 | 0.00 | 97 | 1015.3 |
| 20260831094140 | 78 | 103 | 0.0 | 0.9 | 0.00 | 0.00 | 0.00 | 97 | 1015.3 |
| 20260831093636 | 78 | 278 | 0.0 | 0.0 | 0.00 | 0.00 | 0.00 | 97 | 1015.4 |
| 20260831093131 | 78 | 120 | 0.0 | 0.0 | 0.00 | 0.00 | 0.00 | 97 | 1015.7 |
| 20260831092628 | 78 | 241 | 0.0 | 0.0 | 0.00 | 0.00 | 0.00 | 96 | 1015.3 |
| 20260831092123 | 78 | 174 | 0.0 | 0.0 | 0.00 | 0.00 | 0.00 | 96 | 1015.3 |
| 20260831091622 | 78 | 186 | 0.0 | 0.9 | 0.00 | 0.00 | 0.00 | 96 | 1015.3 |
| 20260831091118 | 78 | 315 | 0.0 | 0.0 | 0.00 | 0.00 | 0.00 | 96 | 1015.3 |
| 20260831090613 | 78 | 110 | 0.0 | 0.0 | 0.00 | 0.00 | 0.00 | 96 | 1015.3 |
| 20260831090109 | 78 | 211 | 0.0 | 0.0 | 0.00 | 0.00 | 0.00 | 96 | 1015.2 |
| 20260831085604 | 78 | 144 | 0.0 | 0.9 | 0.00 | 0.00 | 0.00 | 96 | 1015.4 |
| 20260831085100 | 78 | 290 | 0.0 | 0.0 | 0.00 | 0.00 | 0.00 | 96 | 1015.3 |
| 20260831084555 | 78 | 123 | 0.0 | 0.0 | 0.00 | 0.00 | 0.00 | 96 | 1015.3 |
| 20260831084052 | 77 | 123 | 0.0 | 0.0 | 0.00 | 0.00 | 0.00 | 96 | 1015.2 |
| 20260831083548 | 78 | 123 | 0.0 | 0.0 | 0.00 | 0.00 | 0.00 | 96 | 1015.3 |
| 20260831083042 | 77 | 43 | 0.0 | 0.0 | 0.00 | 0.00 | 0.00 | 96 | 1015.3 |
| 20260831082541 | 77 | 70 | 0.0 | 0.0 | 0.00 | 0.00 | 0.00 | 96 | 1015.3 |
| 20260831082037 | 77 | 70 | 0.0 | 0.0 | 0.00 | 0.00 | 0.00 | 96 | 1015.3 |
| 20260831081532 | 77 | 70 | 0.0 | 0.0 | 0.00 | 0.00 | 0.00 | 96 | 1015.1 |
| 20260831081029 | 78 | 70 | 0.0 | 0.0 | 0.00 | 0.00 | 0.00 | 96 | 1015.1 |
| 20260831080528 | 78 | 70 | 0.0 | 0.0 | 0.00 | 0.00 | 0.00 | 95 | 1015.2 |
| 20260831080024 | 78 | 70 | 0.0 | 0.0 | 0.00 | 0.00 | 0.00 | 95 | 1015.3 |
| 20260831075519 | 78 | 70 | 0.0 | 0.0 | 0.00 | 0.00 | 0.00 | 95 | 1015.3 |
| 20260831075015 | 78 | 70 | 0.0 | 0.0 | 0.00 | 0.00 | 0.00 | 95 | 1015.4 |
| 20260831074514 | 78 | 144 | 0.0 | 0.0 | 0.00 | 0.00 | 0.00 | 95 | 1015.3 |
| 20260831074014 | 78 | 144 | 0.0 | 0.0 | 0.00 | 0.00 | 0.00 | 95 | 1015.5 |
| 20260831073509 | 78 | 144 | 0.0 | 0.0 | 0.00 | 0.00 | 0.00 | 94 | 1015.2 |
| 20260831073008 | 78 | 144 | 0.0 | 0.0 | 0.00 | 0.00 | 0.00 | 94 | 1015.4 |
| 20260831072503 | 78 | 144 | 0.0 | 0.0 | 0.00 | 0.00 | 0.00 | 94 | 1015.5 |
| 20260831072000 | 78 | 144 | 0.0 | 0.0 | 0.00 | 0.00 | 0.00 | 94 | 1015.5 |
| 20260831071459 | 78 | 144 | 0.0 | 0.0 | 0.00 | 0.00 | 0.00 | 93 | 1015.7 |
| 20260831070954 | 78 | 198 | 0.0 | 0.0 | 0.00 | 0.00 | 0.00 | 93 | 1015.5 |
| 20260831070453 | 79 | 198 | 0.0 | 0.0 | 0.00 | 0.00 | 0.00 | 92 | 1015.6 |
| 20260831065952 | 79 | 31 | 0.0 | 0.0 | 0.00 | 0.00 | 0.00 | 92 | 1015.8 |
| 20260831065450 | 79 | 31 | 0.0 | 0.0 | 0.00 | 0.00 | 0.00 | 92 | 1015.7 |
| 20260831064945 | 79 | 31 | 0.0 | 0.0 | 0.00 | 0.00 | 0.00 | 92 | 1015.7 |
| 20260831064440 | 79 | 18 | 0.0 | 0.9 | 0.00 | 0.00 | 0.00 | 93 | 1015.9 |
| 20260831063936 | 79 | 123 | 0.0 | 0.0 | 0.00 | 0.00 | 0.00 | 92 | 1015.7 |
| 20260831063431 | 79 | 123 | 0.0 | 0.0 | 0.00 | 0.00 | 0.00 | 92 | 1015.7 |
| 20260831062925 | 79 | 6 | 0.0 | 0.0 | 0.00 | 0.00 | 0.00 | 92 | 1015.7 |
| 20260831062421 | 79 | 30 | 0.0 | 0.9 | 0.00 | 0.00 | 0.00 | 92 | 1016.0 |
| 20260831061920 | 79 | 176 | 0.0 | 0.0 | 0.00 | 0.00 | 0.00 | 91 | 1016.0 |
| 20260831061419 | 79 | 110 | 0.0 | 0.0 | 0.00 | 0.00 | 0.00 | 91 | 1015.9 |
| 20260831060915 | 79 | 112 | 0.0 | 0.0 | 0.00 | 0.00 | 0.00 | 91 | 1015.8 |
| 20260831060410 | 79 | 98 | 0.0 | 0.0 | 0.00 | 0.00 | 0.00 | 91 | 1015.9 |
| 20260831055909 | 79 | 98 | 0.0 | 0.0 | 0.00 | 0.00 | 0.00 | 91 | 1016.0 |
| 20260831055404 | 79 | 29 | 0.0 | 0.0 | 0.00 | 0.00 | 0.00 | 91 | 1016.2 |
| 20260831054859 | 78 | 265 | 0.0 | 0.0 | 0.00 | 0.00 | 0.00 | 91 | 1016.2 |
| 20260831054354 | 79 | 116 | 0.0 | 0.9 | 0.00 | 0.00 | 0.00 | 91 | 1016.3 |
| 20260831053853 | 79 | 31 | 0.0 | 0.0 | 0.00 | 0.00 | 0.00 | 91 | 1016.3 |
| 20260831053352 | 79 | 3 | 0.0 | 0.0 | 0.00 | 0.00 | 0.00 | 91 | 1016.4 |
| 20260831052847 | 79 | 196 | 0.0 | 0.9 | 0.00 | 0.00 | 0.00 | 90 | 1016.3 |
| 20260831052346 | 79 | 36 | 0.0 | 0.0 | 0.00 | 0.00 | 0.00 | 90 | 1016.2 |
| 20260831051844 | 79 | 36 | 0.0 | 0.0 | 0.00 | 0.00 | 0.00 | 90 | 1016.4 |
| 20260831051343 | 79 | 290 | 0.0 | 0.0 | 0.00 | 0.00 | 0.00 | 90 | 1016.3 |
| 20260831050838 | 79 | 250 | 0.0 | 0.0 | 0.00 | 0.00 | 0.00 | 90 | 1016.1 |
| 20260831050337 | 79 | 18 | 0.0 | 0.9 | 0.00 | 0.00 | 0.00 | 90 | 1016.4 |
| 20260831045832 | 79 | 290 | 0.0 | 0.0 | 0.00 | 0.00 | 0.00 | 90 | 1016.4 |
| 20260831045326 | 79 | 123 | 0.0 | 0.0 | 0.00 | 0.00 | 0.00 | 90 | 1016.2 |
| 20260831044821 | 79 | 31 | 0.9 | 0.9 | 0.00 | 0.00 | 0.00 | 90 | 1016.0 |
| 20260831044316 | 79 | 180 | 0.0 | 0.0 | 0.00 | 0.00 | 0.00 | 90 | 1016.2 |
| 20260831043813 | 79 | 205 | 0.0 | 0.0 | 0.00 | 0.00 | 0.00 | 89 | 1016.3 |
| 20260831043312 | 80 | 190 | 0.9 | 1.7 | 0.00 | 0.00 | 0.00 | 88 | 1016.1 |
| 20260831042807 | 80 | 16 | 0.9 | 1.7 | 0.00 | 0.00 | 0.00 | 88 | 1016.0 |
| 20260831042307 | 80 | 25 | 0.0 | 0.0 | 0.00 | 0.00 | 0.00 | 88 | 1016.4 |
| 20260831041802 | 79 | 212 | 0.0 | 0.0 | 0.00 | 0.00 | 0.00 | 88 | 1016.4 |
| 20260831041301 | 79 | 211 | 0.0 | 0.0 | 0.00 | 0.00 | 0.00 | 88 | 1016.3 |
| 20260831040756 | 79 | 33 | 0.0 | 0.0 | 0.00 | 0.00 | 0.00 | 88 | 1016.4 |
| 20260831040255 | 79 | 250 | 0.0 | 0.0 | 0.00 | 0.00 | 0.00 | 88 | 1016.2 |
| 20260831035754 | 80 | 127 | 0.0 | 0.0 | 0.00 | 0.00 | 0.00 | 87 | 1016.4 |
| 20260831035253 | 80 | 38 | 0.0 | 0.0 | 0.00 | 0.00 | 0.00 | 87 | 1016.4 |
| 20260831034752 | 80 | 216 | 0.9 | 0.9 | 0.00 | 0.00 | 0.00 | 86 | 1016.4 |
| 20260831034248 | 80 | 6 | 0.0 | 1.7 | 0.00 | 0.00 | 0.00 | 86 | 1016.4 |
| 20260831033743 | 80 | 262 | 0.0 | 1.7 | 0.00 | 0.00 | 0.00 | 86 | 1016.5 |
| 20260831033243 | 80 | 3 | 0.0 | 1.7 | 0.00 | 0.00 | 0.00 | 85 | 1016.4 |
| 20260831032738 | 80 | 113 | 0.0 | 0.9 | 0.00 | 0.00 | 0.00 | 85 | 1016.7 |
| 20260831032233 | 80 | 73 | 0.0 | 0.9 | 0.00 | 0.00 | 0.00 | 85 | 1016.6 |
| 20260831031728 | 80 | 259 | 0.9 | 0.9 | 0.00 | 0.00 | 0.00 | 84 | 1016.6 |
| 20260831031223 | 80 | 55 | 0.9 | 0.9 | 0.00 | 0.00 | 0.00 | 84 | 1016.8 |
| 20260831030722 | 80 | 31 | 0.0 | 0.0 | 0.00 | 0.00 | 0.00 | 84 | 1016.9 |
| 20260831030221 | 80 | 110 | 0.0 | 0.9 | 0.00 | 0.00 | 0.00 | 83 | 1016.8 |
| 20260831025720 | 80 | 193 | 0.0 | 0.0 | 0.00 | 0.00 | 0.00 | 83 | 1017.1 |
| 20260831025214 | 80 | 127 | 0.0 | 0.0 | 0.00 | 0.00 | 0.00 | 82 | 1017.2 |
| 20260831024710 | 80 | 285 | 0.0 | 0.9 | 0.00 | 0.00 | 0.00 | 82 | 1016.9 |
| 20260831024204 | 80 | 176 | 0.0 | 1.7 | 0.00 | 0.00 | 0.00 | 81 | 1017.2 |
| 20260831023702 | 80 | 250 | 0.0 | 0.0 | 0.00 | 0.00 | 0.00 | 82 | 1017.2 |
| 20260831023201 | 80 | 341 | 0.0 | 1.7 | 0.00 | 0.00 | 0.00 | 83 | 1017.0 |
| 20260831022656 | 80 | 202 | 0.9 | 1.7 | 0.00 | 0.00 | 0.00 | 84 | 1016.9 |
| 20260831022151 | 80 | 127 | 0.0 | 0.9 | 0.00 | 0.00 | 0.00 | 85 | 1016.8 |
| 20260831021650 | 80 | 43 | 0.0 | 1.7 | 0.00 | 0.00 | 0.00 | 85 | 1016.9 |
| 20260831021145 | 81 | 193 | 0.0 | 0.9 | 0.00 | 0.00 | 0.00 | 85 | 1016.9 |
| 20260831020642 | 80 | 108 | 0.0 | 1.7 | 0.00 | 0.00 | 0.00 | 86 | 1016.9 |
| 20260831020136 | 80 | 113 | 0.0 | 1.7 | 0.00 | 0.00 | 0.00 | 87 | 1016.9 |
| 20260831015632 | 80 | 250 | 0.0 | 0.9 | 0.00 | 0.00 | 0.00 | 86 | 1016.8 |
| 20260831015131 | 80 | 205 | 0.0 | 0.9 | 0.00 | 0.00 | 0.00 | 86 | 1016.8 |
| 20260831014626 | 80 | 95 | 0.0 | 0.9 | 0.00 | 0.00 | 0.00 | 86 | 1016.6 |
| 20260831014121 | 81 | 176 | 0.0 | 0.0 | 0.00 | 0.00 | 0.00 | 87 | 1016.8 |
| 20260831013618 | 81 | 30 | 0.9 | 0.9 | 0.00 | 0.00 | 0.00 | 87 | 1016.8 |
| 20260831013117 | 81 | 61 | 0.0 | 0.9 | 0.00 | 0.00 | 0.00 | 86 | 1016.7 |
| 20260831012612 | 81 | 190 | 0.0 | 0.9 | 0.00 | 0.00 | 0.00 | 86 | 1016.7 |
| 20260831012107 | 81 | 146 | 0.0 | 0.9 | 0.00 | 0.00 | 0.00 | 85 | 1016.8 |
| 20260831011606 | 81 | 318 | 0.0 | 2.6 | 0.00 | 0.00 | 0.00 | 85 | 1016.6 |
| 20260831011102 | 81 | 43 | 0.0 | 0.0 | 0.00 | 0.00 | 0.00 | 85 | 1016.6 |
| 20260831010557 | 81 | 101 | 0.9 | 1.7 | 0.00 | 0.00 | 0.00 | 85 | 1016.7 |
| 20260831010054 | 81 | 278 | 0.0 | 0.9 | 0.00 | 0.00 | 0.00 | 85 | 1016.5 |
| 20260831005548 | 81 | 123 | 0.0 | 1.7 | 0.00 | 0.00 | 0.00 | 84 | 1016.8 |
| 20260831005048 | 81 | 153 | 0.0 | 1.7 | 0.00 | 0.00 | 0.00 | 83 | 1016.4 |
| 20260831004544 | 81 | 163 | 0.0 | 0.9 | 0.00 | 0.00 | 0.00 | 82 | 1016.6 |
| 20260831004039 | 81 | 1 | 0.0 | 0.0 | 0.00 | 0.00 | 0.00 | 82 | 1016.9 |
| 20260831003536 | 81 | 18 | 0.0 | 0.0 | 0.00 | 0.00 | 0.00 | 81 | 1016.7 |
| 20260831003031 | 81 | 181 | 0.0 | 0.9 | 0.00 | 0.00 | 0.00 | 81 | 1016.3 |
| 20260831002529 | 81 | 236 | 0.0 | 0.9 | 0.00 | 0.00 | 0.00 | 81 | 1016.4 |
| 20260831002025 | 81 | 84 | 0.0 | 1.7 | 0.00 | 0.00 | 0.00 | 81 | 1016.2 |
| 20260831001521 | 81 | 264 | 0.0 | 0.9 | 0.00 | 0.00 | 0.00 | 80 | 1016.5 |
| 20260831001017 | 82 | 223 | 0.0 | 1.7 | 0.00 | 0.00 | 0.00 | 79 | 1016.5 |
| 20260831000513 | 82 | 60 | 0.0 | 1.7 | 0.00 | 0.00 | 0.00 | 78 | 1016.2 |
| 20260831000012 | 82 | 127 | 0.0 | 0.9 | 0.00 | 0.00 | 0.00 | 78 | 1016.3 |
| 20260830235512 | 82 | 110 | 1.7 | 1.7 | 0.00 | 0.00 | 0.00 | 77 | 1016.1 |
| 20260830235007 | 82 | 236 | 0.0 | 0.9 | 0.00 | 0.00 | 0.00 | 77 | 1016.0 |
| 20260830234502 | 83 | 296 | 0.0 | 0.0 | 0.00 | 0.00 | 0.00 | 78 | 1016.2 |
| 20260830233957 | 83 | 193 | 0.0 | 1.7 | 0.00 | 0.00 | 0.00 | 77 | 1016.3 |
| 20260830233453 | 83 | 346 | 0.0 | 1.7 | 0.00 | 0.00 | 0.00 | 76 | 1016.2 |
| 20260830232948 | 84 | 56 | 0.9 | 1.7 | 0.00 | 0.00 | 0.00 | 75 | 1016.2 |
| 20260830232444 | 84 | 255 | 0.9 | 0.9 | 0.00 | 0.00 | 0.00 | 74 | 1016.3 |
| 20260830231941 | 85 | 47 | 0.9 | 1.7 | 0.00 | 0.00 | 0.00 | 74 | 1016.1 |
| 20260830231436 | 85 | 107 | 1.7 | 2.6 | 0.00 | 0.00 | 0.00 | 72 | 1016.2 |
| 20260830230935 | 86 | 158 | 0.9 | 2.6 | 0.00 | 0.00 | 0.00 | 72 | 1015.9 |
| 20260830230431 | 87 | 201 | 0.0 | 2.6 | 0.00 | 0.00 | 0.00 | 70 | 1015.8 |
| 20260830225930 | 87 | 208 | 2.6 | 2.6 | 0.00 | 0.00 | 0.00 | 69 | 1015.9 |
| 20260830225426 | 88 | 92 | 0.0 | 1.7 | 0.00 | 0.00 | 0.00 | 67 | 1016.0 |
| 20260830224926 | 87 | 198 | 0.9 | 1.7 | 0.00 | 0.00 | 0.00 | 69 | 1016.0 |
| 20260830224424 | 87 | 124 | 1.7 | 2.6 | 0.00 | 0.00 | 0.00 | 70 | 1016.1 |
| 20260830223921 | 87 | 96 | 0.9 | 3.5 | 0.00 | 0.00 | 0.00 | 70 | 1016.0 |
| 20260830223418 | 86 | 169 | 0.9 | 3.5 | 0.00 | 0.00 | 0.00 | 70 | 1015.8 |
| 20260830222916 | 87 | 137 | 5.2 | 5.2 | 0.00 | 0.00 | 0.00 | 70 | 1015.8 |
| 20260830222412 | 87 | 129 | 0.9 | 3.5 | 0.00 | 0.00 | 0.00 | 70 | 1015.6 |
| 20260830221908 | 87 | 166 | 3.5 | 3.5 | 0.00 | 0.00 | 0.00 | 71 | 1015.6 |
| 20260830221404 | 87 | 113 | 1.7 | 4.3 | 0.00 | 0.00 | 0.00 | 72 | 1015.5 |
| 20260830220859 | 86 | 145 | 1.7 | 2.6 | 0.00 | 0.00 | 0.00 | 74 | 1015.5 |
| 20260830220359 | 87 | 73 | 1.7 | 3.5 | 0.00 | 0.00 | 0.00 | 72 | 1015.6 |
| 20260830215856 | 86 | 89 | 1.7 | 2.6 | 0.00 | 0.00 | 0.00 | 72 | 1015.5 |
| 20260830215356 | 86 | 152 | 1.7 | 1.7 | 0.00 | 0.00 | 0.00 | 73 | 1015.5 |
| 20260830214851 | 86 | 100 | 0.0 | 2.6 | 0.00 | 0.00 | 0.00 | 72 | 1015.6 |
| 20260830214347 | 86 | 152 | 0.0 | 1.7 | 0.00 | 0.00 | 0.00 | 72 | 1015.3 |
| 20260830213841 | 87 | 84 | 0.0 | 2.6 | 0.00 | 0.00 | 0.00 | 71 | 1015.5 |
| 20260830213336 | 88 | 129 | 1.7 | 2.6 | 0.00 | 0.00 | 0.00 | 70 | 1015.5 |
| 20260830212832 | 89 | 33 | 2.6 | 3.5 | 0.00 | 0.00 | 0.00 | 68 | 1015.4 |
| 20260830212328 | 90 | 56 | 1.7 | 2.6 | 0.00 | 0.00 | 0.00 | 66 | 1015.6 |
| 20260830211826 | 90 | 142 | 2.6 | 2.6 | 0.00 | 0.00 | 0.00 | 66 | 1015.4 |
| 20260830211321 | 90 | 75 | 0.0 | 3.5 | 0.00 | 0.00 | 0.00 | 66 | 1015.3 |
| 20260830210817 | 89 | 67 | 0.9 | 2.6 | 0.00 | 0.00 | 0.00 | 67 | 1015.3 |
| 20260830210316 | 89 | 82 | 1.7 | 3.5 | 0.00 | 0.00 | 0.00 | 68 | 1015.4 |
| 20260830205814 | 89 | 102 | 2.6 | 4.3 | 0.00 | 0.00 | 0.00 | 69 | 1015.5 |
| 20260830205313 | 90 | 118 | 2.6 | 3.5 | 0.00 | 0.00 | 0.00 | 65 | 1015.4 |
| 20260830204809 | 91 | 180 | 2.6 | 2.6 | 0.00 | 0.00 | 0.00 | 65 | 1015.6 |
| 20260830204308 | 91 | 108 | 3.5 | 3.5 | 0.00 | 0.00 | 0.00 | 65 | 1015.6 |
| 20260830203804 | 92 | 114 | 1.7 | 7.8 | 0.00 | 0.00 | 0.00 | 64 | 1015.8 |
| 20260830203300 | 91 | 67 | 0.9 | 2.6 | 0.00 | 0.00 | 0.00 | 62 | 1015.8 |
| 20260830202759 | 91 | 31 | 2.6 | 3.5 | 0.00 | 0.00 | 0.00 | 63 | 1015.6 |
| 20260830202254 | 90 | 41 | 2.6 | 3.5 | 0.00 | 0.00 | 0.00 | 62 | 1015.9 |
| 20260830201754 | 91 | 51 | 2.6 | 4.3 | 0.00 | 0.00 | 0.00 | 62 | 1016.2 |
| 20260830201249 | 91 | 33 | 2.6 | 4.3 | 0.00 | 0.00 | 0.00 | 63 | 1016.2 |
| 20260830200745 | 90 | 72 | 1.7 | 2.6 | 0.00 | 0.00 | 0.00 | 63 | 1016.2 |
| 20260830200243 | 91 | 79 | 1.7 | 2.6 | 0.00 | 0.00 | 0.00 | 63 | 1016.2 |
| 20260830195740 | 92 | 91 | 0.0 | 2.6 | 0.00 | 0.00 | 0.00 | 61 | 1016.4 |
| 20260830195238 | 91 | 56 | 1.7 | 2.6 | 0.00 | 0.00 | 0.00 | 61 | 1016.5 |
| 20260830194736 | 91 | 108 | 1.7 | 3.5 | 0.00 | 0.00 | 0.00 | 61 | 1016.3 |
| 20260830194231 | 92 | 129 | 1.7 | 3.5 | 0.00 | 0.00 | 0.00 | 62 | 1016.4 |
| 20260830193726 | 92 | 157 | 1.7 | 3.5 | 0.00 | 0.00 | 0.00 | 60 | 1016.6 |
| 20260830193220 | 92 | 116 | 1.7 | 3.5 | 0.00 | 0.00 | 0.00 | 61 | 1016.7 |
| 20260830192716 | 91 | 32 | 3.5 | 4.3 | 0.00 | 0.00 | 0.00 | 61 | 1016.5 |
| 20260830192211 | 91 | 0 | 1.7 | 4.3 | 0.00 | 0.00 | 0.00 | 61 | 1016.6 |
| 20260830191707 | 91 | 23 | 3.5 | 4.3 | 0.00 | 0.00 | 0.00 | 59 | 1016.5 |
| 20260830191201 | 91 | 31 | 3.5 | 6.1 | 0.00 | 0.00 | 0.00 | 58 | 1016.5 |
| 20260830190656 | 91 | 128 | 0.0 | 2.6 | 0.00 | 0.00 | 0.00 | 59 | 1016.5 |
| 20260830190151 | 92 | 101 | 1.7 | 3.5 | 0.00 | 0.00 | 0.00 | 58 | 1016.2 |
| 20260830185649 | 92 | 97 | 2.6 | 3.5 | 0.00 | 0.00 | 0.00 | 58 | 1016.3 |
| 20260830185146 | 92 | 96 | 0.9 | 3.5 | 0.00 | 0.00 | 0.00 | 58 | 1016.7 |
| 20260830184644 | 92 | 82 | 1.7 | 3.5 | 0.00 | 0.00 | 0.00 | 58 | 1016.5 |
| 20260830184139 | 92 | 107 | 1.7 | 2.6 | 0.00 | 0.00 | 0.00 | 59 | 1016.7 |
| 20260830183634 | 93 | 163 | 0.9 | 1.7 | 0.00 | 0.00 | 0.00 | 59 | 1016.6 |
| 20260830183129 | 91 | 100 | 2.6 | 4.3 | 0.00 | 0.00 | 0.00 | 60 | 1016.7 |
| 20260830182624 | 93 | 83 | 1.7 | 2.6 | 0.00 | 0.00 | 0.00 | 56 | 1016.8 |
| 20260830182120 | 92 | 144 | 3.5 | 7.0 | 0.00 | 0.00 | 0.00 | 56 | 1016.6 |
| 20260830181616 | 91 | 106 | 0.9 | 3.5 | 0.00 | 0.00 | 0.00 | 58 | 1016.7 |
| 20260830181116 | 92 | 43 | 3.5 | 4.3 | 0.00 | 0.00 | 0.00 | 55 | 1017.1 |
| 20260830180615 | 93 | 86 | 2.6 | 3.5 | 0.00 | 0.00 | 0.00 | 54 | 1016.9 |
| 20260830180115 | 93 | 35 | 1.7 | 2.6 | 0.00 | 0.00 | 0.00 | 56 | 1017.0 |
| 20260830175613 | 92 | 77 | 1.7 | 4.3 | 0.00 | 0.00 | 0.00 | 60 | 1017.0 |
| 20260830175109 | 92 | 118 | 2.6 | 2.6 | 0.00 | 0.00 | 0.00 | 58 | 1016.9 |
| 20260830174604 | 91 | 136 | 2.6 | 4.3 | 0.00 | 0.00 | 0.00 | 58 | 1017.2 |
| 20260830174100 | 91 | 56 | 0.9 | 5.2 | 0.00 | 0.00 | 0.00 | 57 | 1017.2 |
| 20260830173555 | 91 | 99 | 2.6 | 4.3 | 0.00 | 0.00 | 0.00 | 57 | 1017.1 |
| 20260830173050 | 92 | 35 | 1.7 | 4.3 | 0.00 | 0.00 | 0.00 | 57 | 1017.1 |
| 20260830172547 | 92 | 342 | 0.9 | 2.6 | 0.00 | 0.00 | 0.00 | 56 | 1017.3 |
| 20260830172043 | 92 | 94 | 1.7 | 3.5 | 0.00 | 0.00 | 0.00 | 55 | 1017.4 |
| 20260830171538 | 92 | 101 | 0.0 | 2.6 | 0.00 | 0.00 | 0.00 | 56 | 1017.2 |
| 20260830171033 | 91 | 81 | 1.7 | 2.6 | 0.00 | 0.00 | 0.00 | 56 | 1017.2 |
| 20260830170532 | 91 | 72 | 0.9 | 3.5 | 0.00 | 0.00 | 0.00 | 55 | 1017.4 |
| 20260830170032 | 91 | 107 | 0.9 | 2.6 | 0.00 | 0.00 | 0.00 | 57 | 1017.2 |
| 20260830165527 | 91 | 117 | 1.7 | 2.6 | 0.00 | 0.00 | 0.00 | 58 | 1017.3 |
| 20260830165023 | 91 | 62 | 2.6 | 3.5 | 0.00 | 0.00 | 0.00 | 59 | 1017.7 |
| 20260830164518 | 91 | 72 | 1.7 | 2.6 | 0.00 | 0.00 | 0.00 | 59 | 1017.6 |
| 20260830164014 | 90 | 94 | 0.0 | 2.6 | 0.00 | 0.00 | 0.00 | 59 | 1017.8 |
| 20260830163511 | 90 | 50 | 0.9 | 3.5 | 0.00 | 0.00 | 0.00 | 58 | 1018.0 |
| 20260830163010 | 90 | 26 | 2.6 | 3.5 | 0.00 | 0.00 | 0.00 | 57 | 1017.9 |
| 20260830162507 | 89 | 172 | 0.0 | 2.6 | 0.00 | 0.00 | 0.00 | 57 | 1017.8 |
| 20260830162006 | 89 | 30 | 1.7 | 3.5 | 0.00 | 0.00 | 0.00 | 59 | 1017.7 |
| 20260830161501 | 88 | 46 | 1.7 | 4.3 | 0.00 | 0.00 | 0.00 | 59 | 1017.9 |
| 20260830160956 | 89 | 123 | 0.0 | 2.6 | 0.00 | 0.00 | 0.00 | 57 | 1018.0 |
| 20260830160453 | 89 | 128 | 1.7 | 2.6 | 0.00 | 0.00 | 0.00 | 61 | 1018.0 |
| 20260830155953 | 89 | 170 | 0.9 | 3.5 | 0.00 | 0.00 | 0.00 | 60 | 1018.1 |
| 20260830155450 | 89 | 146 | 0.9 | 1.7 | 0.00 | 0.00 | 0.00 | 60 | 1018.2 |
| 20260830154944 | 89 | 128 | 0.9 | 1.7 | 0.00 | 0.00 | 0.00 | 61 | 1018.1 |
| 20260830154440 | 89 | 26 | 1.7 | 2.6 | 0.00 | 0.00 | 0.00 | 61 | 1018.0 |
| 20260830153936 | 88 | 43 | 0.9 | 2.6 | 0.00 | 0.00 | 0.00 | 60 | 1018.2 |
| 20260830153432 | 87 | 155 | 0.0 | 0.9 | 0.00 | 0.00 | 0.00 | 63 | 1018.3 |
| 20260830152931 | 87 | 260 | 1.7 | 2.6 | 0.00 | 0.00 | 0.00 | 63 | 1018.2 |
| 20260830152426 | 87 | 4 | 0.9 | 2.6 | 0.00 | 0.00 | 0.00 | 63 | 1018.1 |
| 20260830151925 | 87 | 314 | 0.9 | 5.2 | 0.00 | 0.00 | 0.00 | 63 | 1018.2 |
| 20260830151425 | 86 | 353 | 1.7 | 2.6 | 0.00 | 0.00 | 0.00 | 65 | 1018.3 |
| 20260830150920 | 86 | 315 | 1.7 | 2.6 | 0.00 | 0.00 | 0.00 | 68 | 1018.0 |
| 20260830150420 | 86 | 111 | 1.7 | 1.7 | 0.00 | 0.00 | 0.00 | 69 | 1018.0 |
| 20260830145914 | 85 | 73 | 0.9 | 2.6 | 0.00 | 0.00 | 0.00 | 68 | 1018.1 |
| 20260830145409 | 85 | 115 | 0.0 | 0.9 | 0.00 | 0.00 | 0.00 | 69 | 1017.9 |
| 20260830144904 | 85 | 351 | 0.0 | 2.6 | 0.00 | 0.00 | 0.00 | 71 | 1018.1 |
| 20260830144400 | 85 | 86 | 0.9 | 1.7 | 0.00 | 0.00 | 0.00 | 71 | 1017.9 |
| 20260830143855 | 84 | 31 | 0.0 | 1.7 | 0.00 | 0.00 | 0.00 | 71 | 1018.0 |
| 20260830143350 | 85 | 319 | 0.9 | 2.6 | 0.00 | 0.00 | 0.00 | 72 | 1017.9 |
| 20260830142849 | 84 | 12 | 0.0 | 2.6 | 0.00 | 0.00 | 0.00 | 73 | 1018.0 |
| 20260830142344 | 84 | 132 | 0.0 | 0.9 | 0.00 | 0.00 | 0.00 | 74 | 1018.0 |
| 20260830141839 | 84 | 78 | 0.0 | 3.5 | 0.00 | 0.00 | 0.00 | 73 | 1018.0 |
| 20260830141334 | 84 | 211 | 0.0 | 2.6 | 0.00 | 0.00 | 0.00 | 73 | 1018.4 |
| 20260830140830 | 84 | 161 | 1.7 | 1.7 | 0.00 | 0.00 | 0.00 | 76 | 1018.1 |
| 20260830140325 | 83 | 183 | 0.0 | 2.6 | 0.00 | 0.00 | 0.00 | 76 | 1018.2 |
| 20260830135819 | 83 | 50 | 0.9 | 1.7 | 0.00 | 0.00 | 0.00 | 76 | 1018.1 |
| 20260830135314 | 83 | 198 | 0.0 | 0.9 | 0.00 | 0.00 | 0.00 | 77 | 1018.0 |